| time (UTC) | temp F | wind direction | speed MPH | gust MPH | rain 1hr in | rain 24hr in | rain mn in | humidity % | barometer mb |
| 20260505035416 | 56 | 209 | 3.0 | 6.0 | 0.00 | 0.00 | 0.00 | 60 | 1009.9 |
| 20260505034645 | 57 | 208 | 3.0 | 7.0 | 0.00 | 0.00 | 0.00 | 59 | 1009.9 |
| 20260505034143 | 57 | 187 | 3.0 | 7.0 | 0.00 | 0.00 | 0.00 | 59 | 1009.9 |
| 20260505033643 | 57 | 203 | 3.0 | 6.0 | 0.00 | 0.00 | 0.00 | 59 | 1009.9 |
| 20260505033143 | 57 | 212 | 3.0 | 7.0 | 0.00 | 0.00 | 0.00 | 58 | 1009.9 |
| 20260505032641 | 57 | 204 | 3.0 | 7.0 | 0.00 | 0.00 | 0.00 | 58 | 1009.8 |
| 20260505032142 | 57 | 205 | 3.0 | 8.0 | 0.00 | 0.00 | 0.00 | 57 | 1009.8 |
| 20260505031643 | 57 | 218 | 4.0 | 8.0 | 0.00 | 0.00 | 0.00 | 57 | 1009.8 |
| 20260505031141 | 57 | 219 | 3.0 | 8.0 | 0.00 | 0.00 | 0.00 | 56 | 1009.8 |
| 20260505031129 | 58 | 272 | 3.0 | 8.0 | 0.00 | 0.00 | 0.00 | 56 | 1009.8 |
| 20260505030734 | 58 | 209 | 3.0 | 7.0 | 0.00 | 0.00 | 0.00 | 56 | 1009.8 |
| 20260505025619 | 58 | 212 | 3.0 | 8.0 | 0.00 | 0.00 | 0.00 | 55 | 1009.9 |
| 20260505025350 | 58 | 200 | 2.0 | 6.0 | 0.00 | 0.00 | 0.00 | 54 | 1009.9 |
| 20260505024601 | 58 | 209 | 2.0 | 6.0 | 0.00 | 0.00 | 0.00 | 54 | 1009.9 |
| 20260505024101 | 58 | 205 | 3.0 | 6.0 | 0.00 | 0.00 | 0.00 | 53 | 1009.9 |
| 20260505023829 | 58 | 208 | 2.0 | 9.0 | 0.00 | 0.00 | 0.00 | 53 | 1009.9 |
| 20260505023059 | 58 | 220 | 3.0 | 9.0 | 0.00 | 0.00 | 0.00 | 52 | 1009.9 |
| 20260505022559 | 59 | 204 | 2.0 | 7.0 | 0.00 | 0.00 | 0.00 | 52 | 1010.0 |
| 20260505022328 | 59 | 205 | 2.0 | 7.0 | 0.00 | 0.00 | 0.00 | 52 | 1010.0 |
| 20260505021826 | 59 | 206 | 3.0 | 6.0 | 0.00 | 0.00 | 0.00 | 51 | 1010.0 |
| 20260505021055 | 59 | 210 | 3.0 | 8.0 | 0.00 | 0.00 | 0.00 | 51 | 1009.9 |
| 20260505020555 | 59 | 203 | 3.0 | 8.0 | 0.00 | 0.00 | 0.00 | 50 | 1009.9 |
| 20260505020324 | 59 | 208 | 2.0 | 6.0 | 0.00 | 0.00 | 0.00 | 50 | 1009.9 |
| 20260505015547 | 59 | 237 | 3.0 | 7.0 | 0.00 | 0.00 | 0.00 | 50 | 1009.8 |
| 20260505015045 | 60 | 210 | 3.0 | 7.0 | 0.00 | 0.00 | 0.00 | 49 | 1009.8 |
| 20260505014801 | 60 | 207 | 3.0 | 6.0 | 0.00 | 0.00 | 0.00 | 49 | 1009.8 |
| 20260505014031 | 60 | 216 | 2.0 | 6.0 | 0.00 | 0.00 | 0.00 | 49 | 1009.9 |
| 20260505013537 | 60 | 166 | 2.0 | 5.0 | 0.00 | 0.00 | 0.00 | 48 | 1009.7 |
| 20260505013533 | 60 | 206 | 2.0 | 5.0 | 0.00 | 0.00 | 0.00 | 48 | 1009.8 |
| 20260505013138 | 60 | 222 | 2.0 | 6.0 | 0.00 | 0.00 | 0.00 | 47 | 1009.6 |
| 20260505012034 | 61 | 182 | 2.0 | 6.0 | 0.00 | 0.00 | 0.00 | 47 | 1009.5 |
| 20260505012030 | 61 | 190 | 2.0 | 6.0 | 0.00 | 0.00 | 0.00 | 47 | 1009.4 |
| 20260505011027 | 61 | 209 | 3.0 | 9.0 | 0.00 | 0.00 | 0.00 | 47 | 1009.3 |
| 20260505010527 | 61 | 204 | 3.0 | 9.0 | 0.00 | 0.00 | 0.00 | 47 | 1009.3 |
| 20260505010027 | 62 | 208 | 3.0 | 6.0 | 0.00 | 0.00 | 0.00 | 46 | 1009.2 |
| 20260505005524 | 62 | 206 | 3.0 | 6.0 | 0.00 | 0.00 | 0.00 | 46 | 1009.1 |
| 20260505005027 | 62 | 197 | 3.0 | 6.0 | 0.00 | 0.00 | 0.00 | 45 | 1009.1 |
| 20260505004523 | 62 | 212 | 3.0 | 8.0 | 0.00 | 0.00 | 0.00 | 45 | 1008.9 |
| 20260505004023 | 62 | 207 | 3.0 | 8.0 | 0.00 | 0.00 | 0.00 | 45 | 1008.8 |
| 20260505003523 | 62 | 206 | 3.0 | 8.0 | 0.00 | 0.00 | 0.00 | 45 | 1008.7 |
| 20260505003023 | 63 | 210 | 3.0 | 8.0 | 0.00 | 0.00 | 0.00 | 45 | 1008.6 |
| 20260505002523 | 63 | 192 | 4.0 | 8.0 | 0.00 | 0.00 | 0.00 | 44 | 1008.4 |
| 20260505002023 | 63 | 206 | 3.0 | 7.0 | 0.00 | 0.00 | 0.00 | 44 | 1008.2 |
| 20260505001523 | 63 | 207 | 3.0 | 7.0 | 0.00 | 0.00 | 0.00 | 44 | 1008.1 |
| 20260505001023 | 63 | 211 | 3.0 | 7.0 | 0.00 | 0.00 | 0.00 | 44 | 1008.0 |
| 20260505000753 | 64 | 230 | 3.0 | 6.0 | 0.00 | 0.00 | 0.00 | 43 | 1007.9 |
| 20260505000023 | 64 | 204 | 3.0 | 8.0 | 0.00 | 0.00 | 0.00 | 43 | 1007.8 |
| 20260504235523 | 64 | 211 | 3.0 | 8.0 | 0.00 | 0.00 | 0.00 | 43 | 1007.6 |
| 20260504235020 | 64 | 208 | 4.0 | 9.0 | 0.00 | 0.00 | 0.00 | 43 | 1007.5 |
| 20260504234515 | 65 | 212 | 3.0 | 8.0 | 0.00 | 0.00 | 0.00 | 42 | 1007.4 |
| 20260504234015 | 65 | 316 | 4.0 | 8.0 | 0.00 | 0.00 | 0.00 | 42 | 1007.4 |
| 20260504233517 | 65 | 242 | 4.0 | 9.0 | 0.00 | 0.00 | 0.00 | 41 | 1007.4 |
| 20260504233014 | 66 | 203 | 4.0 | 9.0 | 0.00 | 0.00 | 0.00 | 41 | 1007.3 |
| 20260504232746 | 66 | 197 | 3.0 | 9.0 | 0.00 | 0.00 | 0.00 | 40 | 1007.2 |
| 20260504232247 | 66 | 251 | 3.0 | 6.0 | 0.00 | 0.00 | 0.00 | 39 | 1007.0 |
| 20260504231515 | 67 | 204 | 3.0 | 7.0 | 0.00 | 0.00 | 0.00 | 39 | 1006.9 |
| 20260504231014 | 67 | 228 | 4.0 | 10.0 | 0.00 | 0.00 | 0.00 | 38 | 1006.8 |
| 20260504230515 | 67 | 247 | 4.0 | 10.0 | 0.00 | 0.00 | 0.00 | 37 | 1006.7 |
| 20260504230015 | 67 | 176 | 4.0 | 9.0 | 0.00 | 0.00 | 0.00 | 37 | 1006.6 |
| 20260504225740 | 67 | 255 | 4.0 | 7.0 | 0.00 | 0.00 | 0.00 | 36 | 1006.4 |
| 20260504225009 | 68 | 198 | 3.0 | 8.0 | 0.00 | 0.00 | 0.00 | 36 | 1006.4 |
| 20260504224506 | 68 | 214 | 3.0 | 10.0 | 0.00 | 0.00 | 0.00 | 36 | 1006.3 |
| 20260504224005 | 69 | 203 | 4.0 | 10.0 | 0.00 | 0.00 | 0.00 | 34 | 1006.3 |
| 20260504223505 | 69 | 206 | 4.0 | 9.0 | 0.00 | 0.00 | 0.00 | 34 | 1006.2 |
| 20260504223005 | 70 | 248 | 3.0 | 8.0 | 0.00 | 0.00 | 0.00 | 32 | 1006.2 |
| 20260504222502 | 70 | 216 | 3.0 | 9.0 | 0.00 | 0.00 | 0.00 | 30 | 1006.1 |
| 20260504222003 | 70 | 222 | 3.0 | 9.0 | 0.00 | 0.00 | 0.00 | 30 | 1006.1 |
| 20260504221503 | 70 | 209 | 3.0 | 8.0 | 0.00 | 0.00 | 0.00 | 30 | 1006.1 |
| 20260504221003 | 71 | 239 | 2.0 | 8.0 | 0.00 | 0.00 | 0.00 | 30 | 1006.1 |
| 20260504220733 | 71 | 245 | 3.0 | 8.0 | 0.00 | 0.00 | 0.00 | 30 | 1006.1 |
| 20260504215957 | 71 | 215 | 3.0 | 8.0 | 0.00 | 0.00 | 0.00 | 29 | 1006.1 |
| 20260504215721 | 71 | 234 | 4.0 | 9.0 | 0.00 | 0.00 | 0.00 | 29 | 1006.1 |
| 20260504215329 | 71 | 197 | 2.0 | 9.0 | 0.00 | 0.00 | 0.00 | 30 | 1006.1 |
| 20260504215221 | 71 | 274 | 3.0 | 9.0 | 0.00 | 0.00 | 0.00 | 29 | 1006.2 |
| 20260504213951 | 71 | 213 | 2.0 | 6.0 | 0.00 | 0.00 | 0.00 | 29 | 1006.1 |
| 20260504213448 | 72 | 218 | 3.0 | 10.0 | 0.00 | 0.00 | 0.00 | 28 | 1006.1 |
| 20260504212949 | 72 | 230 | 3.0 | 10.0 | 0.00 | 0.00 | 0.00 | 28 | 1006.1 |
| 20260504212719 | 72 | 235 | 3.0 | 6.0 | 0.00 | 0.00 | 0.00 | 28 | 1006.2 |
| 20260504211947 | 72 | 216 | 3.0 | 10.0 | 0.00 | 0.00 | 0.00 | 28 | 1006.2 |
| 20260504211445 | 72 | 193 | 4.0 | 10.0 | 0.00 | 0.00 | 0.00 | 28 | 1006.1 |
| 20260504210941 | 72 | 227 | 4.0 | 12.0 | 0.00 | 0.00 | 0.00 | 28 | 1006.1 |
| 20260504210712 | 72 | 203 | 3.0 | 12.0 | 0.00 | 0.00 | 0.00 | 28 | 1006.1 |
| 20260504205941 | 73 | 262 | 3.0 | 10.0 | 0.00 | 0.00 | 0.00 | 28 | 1006.1 |
| 20260504205440 | 72 | 253 | 3.0 | 9.0 | 0.00 | 0.00 | 0.00 | 28 | 1006.0 |
| 20260504204942 | 72 | 227 | 3.0 | 9.0 | 0.00 | 0.00 | 0.00 | 28 | 1006.0 |
| 20260504204443 | 71 | 194 | 3.0 | 9.0 | 0.00 | 0.00 | 0.00 | 28 | 1006.1 |
| 20260504203943 | 72 | 233 | 3.0 | 12.0 | 0.00 | 0.00 | 0.00 | 28 | 1006.1 |
| 20260504203437 | 72 | 228 | 3.0 | 12.0 | 0.00 | 0.00 | 0.00 | 27 | 1006.2 |
| 20260504202924 | 73 | 270 | 2.0 | 9.0 | 0.00 | 0.00 | 0.00 | 27 | 1006.1 |
| 20260504202424 | 73 | 196 | 2.0 | 8.0 | 0.00 | 0.00 | 0.00 | 27 | 1006.1 |
| 20260504201925 | 73 | 279 | 2.0 | 8.0 | 0.00 | 0.00 | 0.00 | 26 | 1006.1 |
| 20260504201424 | 73 | 235 | 2.0 | 8.0 | 0.00 | 0.00 | 0.00 | 27 | 1006.3 |
| 20260504200924 | 73 | 248 | 3.0 | 8.0 | 0.00 | 0.00 | 0.00 | 27 | 1006.3 |
| 20260504200425 | 72 | 279 | 3.0 | 9.0 | 0.00 | 0.00 | 0.00 | 26 | 1006.3 |
| 20260504195926 | 72 | 228 | 4.0 | 9.0 | 0.00 | 0.00 | 0.00 | 26 | 1006.4 |
| 20260504195922 | 72 | 230 | 3.0 | 7.0 | 0.00 | 0.00 | 0.00 | 26 | 1006.3 |
| 20260504194923 | 72 | 268 | 3.0 | 7.0 | 0.00 | 0.00 | 0.00 | 26 | 1006.5 |
| 20260504194420 | 72 | 251 | 3.0 | 7.0 | 0.00 | 0.00 | 0.00 | 26 | 1006.4 |
| 20260504193920 | 72 | 241 | 3.0 | 10.0 | 0.00 | 0.00 | 0.00 | 26 | 1006.4 |
| 20260504193651 | 72 | 237 | 4.0 | 10.0 | 0.00 | 0.00 | 0.00 | 26 | 1006.4 |
| 20260504192920 | 72 | 246 | 3.0 | 9.0 | 0.00 | 0.00 | 0.00 | 26 | 1006.2 |
| 20260504192420 | 71 | 256 | 3.0 | 9.0 | 0.00 | 0.00 | 0.00 | 27 | 1006.2 |
| 20260504191914 | 71 | 249 | 4.0 | 14.0 | 0.00 | 0.00 | 0.00 | 26 | 1006.4 |
| 20260504191403 | 71 | 213 | 4.0 | 14.0 | 0.00 | 0.00 | 0.00 | 26 | 1006.5 |
| 20260504190902 | 71 | 241 | 4.0 | 11.0 | 0.00 | 0.00 | 0.00 | 26 | 1006.4 |
| 20260504190402 | 71 | 200 | 3.0 | 11.0 | 0.00 | 0.00 | 0.00 | 26 | 1006.5 |
| 20260504185903 | 71 | 299 | 3.0 | 8.0 | 0.00 | 0.00 | 0.00 | 27 | 1006.7 |
| 20260504185633 | 71 | 233 | 3.0 | 10.0 | 0.00 | 0.00 | 0.00 | 26 | 1006.7 |
| 20260504185134 | 71 | 251 | 3.0 | 10.0 | 0.00 | 0.00 | 0.00 | 26 | 1006.6 |
| 20260504184634 | 71 | 218 | 3.0 | 15.0 | 0.00 | 0.00 | 0.00 | 27 | 1006.6 |
| 20260504183900 | 71 | 279 | 4.0 | 15.0 | 0.00 | 0.00 | 0.00 | 26 | 1006.7 |
| 20260504183344 | 70 | 212 | 4.0 | 11.0 | 0.00 | 0.00 | 0.00 | 27 | 1006.7 |
| 20260504182835 | 70 | 211 | 4.0 | 11.0 | 0.00 | 0.00 | 0.00 | 28 | 1006.7 |
| 20260504182319 | 70 | 245 | 3.0 | 11.0 | 0.00 | 0.00 | 0.00 | 28 | 1006.9 |
| 20260504181819 | 70 | 185 | 4.0 | 11.0 | 0.00 | 0.00 | 0.00 | 28 | 1006.9 |
| 20260504181314 | 69 | 203 | 6.0 | 20.0 | 0.00 | 0.00 | 0.00 | 28 | 1006.9 |
| 20260504180814 | 69 | 233 | 6.0 | 20.0 | 0.00 | 0.00 | 0.00 | 28 | 1006.9 |
| 20260504180315 | 69 | 212 | 5.0 | 13.0 | 0.00 | 0.00 | 0.00 | 28 | 1006.9 |
| 20260504175815 | 69 | 243 | 5.0 | 13.0 | 0.00 | 0.00 | 0.00 | 28 | 1007.1 |
| 20260504175312 | 69 | 241 | 5.0 | 12.0 | 0.00 | 0.00 | 0.00 | 30 | 1007.0 |
| 20260504174811 | 69 | 236 | 5.0 | 11.0 | 0.00 | 0.00 | 0.00 | 28 | 1007.1 |
| 20260504174541 | 69 | 216 | 4.0 | 11.0 | 0.00 | 0.00 | 0.00 | 29 | 1007.2 |
| 20260504174041 | 68 | 197 | 4.0 | 11.0 | 0.00 | 0.00 | 0.00 | 29 | 1007.2 |
| 20260504173310 | 68 | 243 | 4.0 | 11.0 | 0.00 | 0.00 | 0.00 | 28 | 1007.2 |
| 20260504172810 | 68 | 207 | 4.0 | 10.0 | 0.00 | 0.00 | 0.00 | 27 | 1007.2 |
| 20260504172305 | 68 | 218 | 4.0 | 13.0 | 0.00 | 0.00 | 0.00 | 30 | 1007.3 |
| 20260504171800 | 68 | 258 | 5.0 | 13.0 | 0.00 | 0.00 | 0.00 | 28 | 1007.2 |
| 20260504171258 | 68 | 239 | 4.0 | 10.0 | 0.00 | 0.00 | 0.00 | 28 | 1007.3 |
| 20260504170756 | 68 | 204 | 3.0 | 8.0 | 0.00 | 0.00 | 0.00 | 29 | 1007.2 |
| 20260504170256 | 68 | 235 | 4.0 | 14.0 | 0.00 | 0.00 | 0.00 | 30 | 1007.3 |
| 20260504160238 | 67 | 228 | 4.0 | 12.0 | 0.00 | 0.00 | 0.00 | 31 | 1008.0 |
| 20260504160234 | 66 | 233 | 4.0 | 11.0 | 0.00 | 0.00 | 0.00 | 31 | 1007.9 |
| 20260504150959 | 65 | 279 | 4.0 | 10.0 | 0.00 | 0.00 | 0.00 | 33 | 1008.5 |
| 20260504150228 | 65 | 234 | 3.0 | 10.0 | 0.00 | 0.00 | 0.00 | 33 | 1008.5 |
| 20260504141136 | 62 | 211 | 3.0 | 10.0 | 0.00 | 0.00 | 0.00 | 39 | 1008.9 |
| 20260504140641 | 62 | 212 | 3.0 | 7.0 | 0.00 | 0.00 | 0.00 | 39 | 1009.1 |
| 20260504140636 | 62 | 223 | 3.0 | 10.0 | 0.00 | 0.00 | 0.00 | 38 | 1009.0 |
| 20260504130616 | 58 | 222 | 2.0 | 7.0 | 0.00 | 0.00 | 0.00 | 43 | 1009.8 |
| 20260504130116 | 58 | 216 | 2.0 | 7.0 | 0.00 | 0.00 | 0.00 | 43 | 1009.8 |
| 20260504110517 | 46 | 203 | 1.0 | 3.0 | 0.00 | 0.00 | 0.00 | 58 | 1010.1 |
| 20260504100359 | 47 | 207 | 0.0 | 1.0 | 0.00 | 0.00 | 0.00 | 56 | 1010.1 |
| 20260504081827 | 47 | 241 | 1.0 | 2.0 | 0.00 | 0.00 | 0.00 | 55 | 1009.9 |
| 20260504081330 | 46 | 241 | 1.0 | 3.0 | 0.00 | 0.00 | 0.00 | 55 | 1009.9 |
| 20260504081058 | 46 | 241 | 0.0 | 3.0 | 0.00 | 0.00 | 0.00 | 55 | 1010.0 |
| 20260504080327 | 46 | 242 | 0.0 | 2.0 | 0.00 | 0.00 | 0.00 | 56 | 1010.0 |
| 20260504070316 | 45 | 247 | 0.0 | 2.0 | 0.00 | 0.00 | 0.00 | 58 | 1009.9 |
| 20260504060235 | 44 | 324 | 0.0 | 0.0 | 0.00 | 0.00 | 0.00 | 55 | 1009.8 |
| 20260504050215 | 43 | 212 | 0.0 | 0.0 | 0.00 | 0.00 | 0.00 | 58 | 1009.8 |
| 20260504045946 | 43 | 212 | 0.0 | 1.0 | 0.00 | 0.00 | 0.00 | 59 | 1009.8 |
| 20260504045213 | 43 | 212 | 0.0 | 1.0 | 0.00 | 0.00 | 0.00 | 57 | 1009.9 |
| 20260504044712 | 43 | 212 | 0.0 | 1.0 | 0.00 | 0.00 | 0.00 | 57 | 1009.8 |
| 20260504044209 | 43 | 212 | 0.0 | 1.0 | 0.00 | 0.00 | 0.00 | 56 | 1009.8 |
| 20260504043707 | 43 | 212 | 0.0 | 1.0 | 0.00 | 0.00 | 0.00 | 57 | 1009.8 |
| 20260504043438 | 43 | 212 | 0.0 | 1.0 | 0.00 | 0.00 | 0.00 | 57 | 1009.8 |
| 20260504042703 | 43 | 212 | 0.0 | 2.0 | 0.00 | 0.00 | 0.00 | 57 | 1009.8 |
| 20260504042201 | 42 | 212 | 0.0 | 2.0 | 0.00 | 0.00 | 0.00 | 57 | 1009.8 |
| 20260504041929 | 42 | 212 | 1.0 | 2.0 | 0.00 | 0.00 | 0.00 | 58 | 1009.8 |
| 20260504041428 | 42 | 4 | 0.0 | 2.0 | 0.00 | 0.00 | 0.00 | 58 | 1009.8 |
| 20260504040656 | 42 | 4 | 1.0 | 2.0 | 0.00 | 0.00 | 0.00 | 58 | 1009.7 |
| 20260504040155 | 42 | 4 | 0.0 | 2.0 | 0.00 | 0.00 | 0.00 | 58 | 1009.6 |